[[{"header":{"parameterUnit":"m.s-1","parameterCategory":1,"la1":30.2991,"la2":30.254,"lo1":-89.0895,"lo2":-89.0444,"dy":0.0017,"dx":0.0017,"nx":28,"ny":28,"refTime":"2024-05-03T09:00:00:Z","depth":0,"parameterNumber":2,"parameterNumberName":"U-component_of_WINDS"},"data":[0,0,0,0,0,0,0,0,0,0,0,0,0,0,0,0,0,0,0,0,0,0,0,0,0,0,0,0,0,0,0,0,0,0,0,0,0,0,0,0,0,0,0,0,0,0,0,0,0,0,0,0,0,0,0,0,0,0,1.0726,1.0726,0,1.0743,1.0743,1.0743,1.0766,1.0766,1.0766,1.0767,1.0782,1.0782,1.0782,0,0,0,0,0,0,0,0,0,0,0,0,0,1.0711,1.0711,1.0726,1.0726,1.0727,1.0743,1.0743,1.0743,1.0765,1.0766,1.0766,1.0767,1.0782,1.0782,1.0782,0,0,0,0,0,0,0,0,0,0,0,0,0,1.0721,1.0711,1.0726,1.074,1.0741,1.0743,1.0743,1.0743,1.0765,1.0766,1.0767,1.0767,1.0782,1.0782,1.0782,1.0771,0,0,1.0782,1.0782,0,0,0,0,0,0,0,0,1.0721,1.0722,1.0737,1.0739,1.074,1.0753,1.0743,1.0752,1.0765,1.0756,1.0767,1.0767,1.0772,1.0772,1.0774,1.0772,1.0772,1.0782,1.0782,1.0782,1.0782,0,0,0,0,0,0,0,1.072,1.0721,1.0733,1.0738,1.0739,1.0744,1.0746,1.0745,1.076,1.0757,1.0759,1.076,1.0772,1.0774,1.0775,1.0773,1.0782,1.0782,1.0782,1.0782,1.076,1.0759,0,0,0,0,0,0,1.0718,1.0721,1.0732,1.0733,1.0732,1.0744,1.0746,1.0748,1.076,1.0763,1.076,1.0761,1.0774,1.0775,1.0775,1.0762,1.0782,1.0782,1.0782,1.076,1.076,1.0759,0,0,0,0,0,0,1.0717,1.0718,1.0731,1.0727,1.0729,1.0743,1.0745,1.0748,1.075,1.0763,1.0765,1.0759,1.0774,1.0775,1.0772,1.0763,1.0782,1.0782,1.0761,1.076,1.0759,1.0737,0,0,0,0,0,0,1.0717,1.0718,1.0715,1.0727,1.0729,1.0728,1.0745,1.0748,1.075,1.0752,1.0763,1.0765,1.0775,1.0771,1.0772,1.0764,1.0782,1.0762,1.0761,1.0759,1.0738,1.0735,1.0732,0,0,0,0,0,1.0716,1.0708,1.0715,1.0716,1.0726,1.0728,1.0729,1.0741,1.075,1.0746,1.0754,1.0764,1.0764,1.0771,1.0771,1.0763,1.0762,1.0761,1.076,1.074,1.0736,1.0733,0,0,0,0,0,0,1.0694,1.071,1.0718,1.0713,1.0719,1.0732,1.0728,1.0737,1.074,1.0742,1.0756,1.0758,1.0752,1.0757,1.0765,1.0752,1.0765,1.0763,1.0749,1.0746,1.0743,1.0742,1.0782,0,0,0,0,0,1.0689,1.069,1.0703,1.0698,1.0701,1.0713,1.0715,1.0723,1.073,1.0732,1.074,1.0745,1.0746,1.0746,1.0748,1.0739,1.0741,1.0733,1.073,1.0728,1.0727,1.0721,1.0717,1.0754,1.0754,1.0754,0,0,1.0678,1.0687,1.0687,1.0694,1.07,1.0699,1.0715,1.0715,1.0714,1.0732,1.0729,1.0734,1.0741,1.0734,1.0732,1.0738,1.0717,1.0726,1.0724,1.0724,1.0719,1.0715,1.0712,1.0753,1.0753,1.0753,0,0,1.0658,1.0665,1.0662,1.0666,1.0674,1.0683,1.0681,1.0692,1.0697,1.0694,1.0706,1.0705,1.0707,1.0711,1.0713,1.0692,1.0701,1.0692,1.0677,1.0671,1.0668,1.0665,1.0657,1.0654,1.069,1.069,1.069,0,1.0644,1.0645,1.0658,1.0656,1.0658,1.0674,1.0669,1.0673,1.0681,1.0682,1.0689,1.069,1.0696,1.069,1.0684,1.0686,1.0684,1.0691,1.0667,1.0665,1.0663,1.0655,1.0652,1.0689,1.0689,1.0689,1.0689,0,1.0626,1.0626,1.0622,1.0629,1.0631,1.0627,1.0639,1.0639,1.0647,1.0654,1.0649,1.0656,1.0659,1.0658,1.0666,1.0652,1.0656,1.0665,1.0678,1.0658,1.0651,1.0648,1.0687,1.0688,1.0688,1.0688,0,0,1.0595,1.0608,1.0606,1.0609,1.0618,1.0618,1.0614,1.0617,1.0616,1.062,1.0617,1.0617,1.0625,1.0627,1.0635,1.063,1.0612,1.064,1.064,1.0634,1.0596,1.0589,1.0585,1.0618,1.0617,1.0617,1.0595,0,1.0576,1.0572,1.0583,1.0575,1.0575,1.0589,1.0585,1.059,1.0596,1.0595,1.0601,1.0601,1.0612,1.0613,1.0609,1.0615,1.0604,1.0617,1.0614,1.0614,1.0612,1.0582,1.0575,1.0553,1.0592,1.0592,1.0591,0,1.0555,1.0558,1.055,1.0558,1.0558,1.0555,1.0558,1.0558,1.0562,1.0566,1.0568,1.0577,1.0573,1.0585,1.0578,1.0587,1.0586,1.0588,1.0588,1.0588,1.0602,1.058,1.0547,1.0544,1.0587,1.0588,1.0588,0,1.0532,1.0534,1.0529,1.0531,1.0541,1.0538,1.0541,1.0546,1.0547,1.0548,1.0549,1.0549,1.055,1.055,1.0558,1.0567,1.055,1.0563,1.0553,1.0553,1.0549,1.055,1.0515,1.0549,1.0549,1.0549,1.0549,0,1.051,1.0505,1.0519,1.0516,1.051,1.0521,1.0515,1.0519,1.0523,1.0521,1.0532,1.053,1.0541,1.0539,1.0546,1.0538,1.0539,1.0541,1.0543,1.054,1.054,1.054,1.0542,1.0548,1.0549,1.0549,1.0549,0,1.0484,1.0493,1.0489,1.0498,1.0499,1.0494,1.0501,1.0498,1.0504,1.0501,1.05,1.0509,1.0507,1.0516,1.0515,1.0519,1.0509,1.0513,1.0507,1.0509,1.0497,1.0498,1.0462,1.0457,1.0494,1.0494,1.0494,0,1.047,1.0466,1.0474,1.0473,1.0476,1.0475,1.0475,1.0485,1.0485,1.0488,1.0485,1.0483,1.0483,1.0479,1.0485,1.0484,1.0488,1.0475,1.0488,1.0485,1.0487,1.0487,1.0486,1.0473,1.0472,1.0472,1.0472,0,1.0444,1.0448,1.0448,1.0449,1.0449,1.045,1.0452,1.0451,1.0462,1.046,1.0458,1.0458,1.0457,1.0455,1.0455,1.0457,1.0466,1.0467,1.0465,1.0462,1.0459,1.046,1.05,1.0468,1.0469,1.0469,1.0469,1.0469,1.0423,1.042,1.0424,1.0423,1.0426,1.0427,1.0424,1.0429,1.0428,1.0428,1.0434,1.043,1.0433,1.0433,1.0435,1.0431,1.0437,1.0434,1.0433,1.0432,1.043,1.0459,1.0431,1.0431,1.0432,1.0432,1.0432,0,1.0397,1.04,1.0399,1.0401,1.04,1.0408,1.041,1.0408,1.0405,1.0407,1.0406,1.0403,1.0401,1.0406,1.0404,1.04,1.0404,1.0399,1.04,1.04,1.0425,1.0427,1.0396,1.0396,1.0396,1.0396,1.0396,1.0396,1.0383,1.0378,1.0382,1.0377,1.038,1.0377,1.0377,1.0377,1.0379,1.0375,1.0373,1.0376,1.0379,1.0377,1.0375,1.0376,1.0375,1.0369,1.0371,1.0395,1.0398,1.0402,1.0404,1.0368,1.0368,1.0346,1.0346,1.0346]},{"header":{"parameterUnit":"m.s-1","parameterCategory":1,"la1":30.2991,"la2":30.254,"lo1":-89.0895,"lo2":-89.0444,"dy":0.0017,"dx":0.0017,"nx":28,"ny":28,"refTime":"2024-05-03T09:00:00:Z","depth":0,"parameterNumber":3,"parameterNumberName":"V-component_of_WINDS"},"data":[0,0,0,0,0,0,0,0,0,0,0,0,0,0,0,0,0,0,0,0,0,0,0,0,0,0,0,0,0,0,0,0,0,0,0,0,0,0,0,0,0,0,0,0,0,0,0,0,0,0,0,0,0,0,0,0,0,0,-1.2944,-1.2944,0,-1.2977,-1.2978,-1.2978,-1.2953,-1.2952,-1.2951,-1.295,-1.2991,-1.2994,-1.2996,0,0,0,0,0,0,0,0,0,0,0,0,0,-1.2864,-1.2865,-1.2943,-1.2944,-1.2944,-1.2977,-1.2978,-1.2978,-1.2953,-1.2952,-1.295,-1.2949,-1.2991,-1.2993,-1.2996,0,0,0,0,0,0,0,0,0,0,0,0,0,-1.2898,-1.2866,-1.2943,-1.2936,-1.2935,-1.2977,-1.2978,-1.2978,-1.2953,-1.2952,-1.295,-1.2948,-1.299,-1.2993,-1.2996,-1.305,0,0,-1.3006,-1.3008,0,0,0,0,0,0,0,0,-1.2896,-1.2901,-1.2936,-1.2936,-1.2936,-1.2959,-1.2965,-1.3003,-1.2954,-1.2947,-1.295,-1.2948,-1.2983,-1.2986,-1.2997,-1.3052,-1.3054,-1.3006,-1.3008,-1.301,-1.3011,0,0,0,0,0,0,0,-1.2894,-1.29,-1.2957,-1.2937,-1.2937,-1.2933,-1.2936,-1.2972,-1.2974,-1.2947,-1.2945,-1.2949,-1.2982,-1.2993,-1.2997,-1.3054,-1.3006,-1.3009,-1.3011,-1.3013,-1.3155,-1.3157,0,0,0,0,0,0,-1.2891,-1.2898,-1.2956,-1.2958,-1.2911,-1.2935,-1.2939,-1.2953,-1.2973,-1.2975,-1.2951,-1.2948,-1.2989,-1.2994,-1.2999,-1.3062,-1.301,-1.3013,-1.3015,-1.3153,-1.3156,-1.3158,0,0,0,0,0,0,-1.289,-1.2897,-1.2955,-1.2927,-1.2934,-1.2938,-1.2955,-1.2955,-1.2966,-1.2976,-1.2977,-1.2961,-1.2988,-1.2994,-1.3037,-1.3063,-1.3014,-1.3017,-1.3151,-1.3154,-1.3157,-1.3189,0,0,0,0,0,0,-1.2888,-1.2896,-1.2915,-1.2928,-1.2936,-1.299,-1.2957,-1.2957,-1.2971,-1.2968,-1.2986,-1.2988,-1.2987,-1.3032,-1.304,-1.3067,-1.302,-1.3149,-1.3153,-1.3156,-1.3186,-1.3193,-1.3199,0,0,0,0,0,-1.2885,-1.2925,-1.2916,-1.2923,-1.2959,-1.2992,-1.2996,-1.2992,-1.2973,-1.2993,-1.2999,-1.2987,-1.3059,-1.3037,-1.3045,-1.3073,-1.3147,-1.3151,-1.3156,-1.3183,-1.3191,-1.3199,0,0,0,0,0,0,-1.2917,-1.2926,-1.2917,-1.2962,-1.2976,-1.2987,-1.3012,-1.3002,-1.3023,-1.302,-1.3016,-1.3021,-1.3065,-1.3074,-1.3048,-1.3126,-1.31,-1.3107,-1.3118,-1.3127,-1.3133,-1.3129,-1.3022,0,0,0,0,0,-1.2929,-1.2953,-1.296,-1.2999,-1.3006,-1.3008,-1.3022,-1.3018,-1.3033,-1.304,-1.3049,-1.3067,-1.3093,-1.3111,-1.3136,-1.3188,-1.3191,-1.3211,-1.3218,-1.3223,-1.3228,-1.3256,-1.3265,-1.3171,-1.3171,-1.3171,0,0,-1.2955,-1.2963,-1.2978,-1.3006,-1.3016,-1.3042,-1.3013,-1.3042,-1.3062,-1.3045,-1.3084,-1.3092,-1.3112,-1.3159,-1.318,-1.3168,-1.3255,-1.3228,-1.3232,-1.3235,-1.3261,-1.327,-1.3278,-1.3174,-1.3174,-1.3173,0,0,-1.3015,-1.3023,-1.3056,-1.3066,-1.3081,-1.3082,-1.309,-1.3103,-1.3107,-1.3146,-1.3133,-1.3158,-1.3204,-1.3218,-1.3231,-1.3296,-1.3286,-1.3305,-1.3338,-1.3365,-1.3373,-1.3379,-1.3402,-1.341,-1.331,-1.331,-1.331,0,-1.3045,-1.3082,-1.3075,-1.3104,-1.3116,-1.31,-1.3134,-1.3145,-1.3169,-1.3179,-1.3164,-1.322,-1.3233,-1.3282,-1.3298,-1.331,-1.332,-1.3302,-1.3372,-1.3378,-1.3384,-1.3406,-1.3414,-1.3312,-1.3312,-1.3312,-1.3312,0,-1.3118,-1.3144,-1.3169,-1.3189,-1.3205,-1.3237,-1.3236,-1.3254,-1.3248,-1.3251,-1.3292,-1.3306,-1.3333,-1.3345,-1.3341,-1.3394,-1.3386,-1.3372,-1.3345,-1.3395,-1.3415,-1.3424,-1.3315,-1.3315,-1.3314,-1.3313,0,0,-1.3199,-1.3214,-1.3223,-1.3231,-1.3247,-1.3268,-1.33,-1.3323,-1.3338,-1.3356,-1.3383,-1.3422,-1.3408,-1.3423,-1.3421,-1.3445,-1.3495,-1.3428,-1.3429,-1.3439,-1.3554,-1.3564,-1.3573,-1.3489,-1.349,-1.3491,-1.3552,0,-1.3258,-1.331,-1.3304,-1.3355,-1.3378,-1.3363,-1.3391,-1.3405,-1.3409,-1.3431,-1.3437,-1.3464,-1.3444,-1.3453,-1.3476,-1.3484,-1.3518,-1.348,-1.3515,-1.3516,-1.3508,-1.3584,-1.3594,-1.3651,-1.356,-1.3562,-1.3563,0,-1.3334,-1.3351,-1.3402,-1.3413,-1.3423,-1.3448,-1.3469,-1.3491,-1.3507,-1.3508,-1.3524,-1.3518,-1.3552,-1.3525,-1.3572,-1.3546,-1.3561,-1.3567,-1.3569,-1.3571,-1.3541,-1.3587,-1.3669,-1.3677,-1.3575,-1.3574,-1.3573,0,-1.3386,-1.3422,-1.3457,-1.3466,-1.348,-1.3497,-1.3505,-1.3519,-1.3533,-1.3553,-1.3563,-1.3587,-1.3601,-1.3621,-1.3622,-1.3603,-1.367,-1.3644,-1.3672,-1.3672,-1.3686,-1.3685,-1.377,-1.3698,-1.3698,-1.3697,-1.3697,0,-1.3452,-1.3484,-1.348,-1.3502,-1.3538,-1.3533,-1.3569,-1.3575,-1.3588,-1.3611,-1.3602,-1.3625,-1.3625,-1.365,-1.3652,-1.369,-1.3697,-1.37,-1.3699,-1.37,-1.3699,-1.3708,-1.3704,-1.37,-1.3699,-1.3699,-1.3698,0,-1.3516,-1.3515,-1.3552,-1.3561,-1.3565,-1.3591,-1.36,-1.3622,-1.3625,-1.3655,-1.3662,-1.3668,-1.3696,-1.3699,-1.3733,-1.3734,-1.378,-1.3777,-1.3774,-1.3773,-1.3801,-1.3798,-1.3894,-1.3906,-1.3827,-1.3827,-1.3828,0,-1.3557,-1.3581,-1.3593,-1.3606,-1.3614,-1.3637,-1.3651,-1.3648,-1.3663,-1.3683,-1.3702,-1.3729,-1.3749,-1.3796,-1.3804,-1.383,-1.3826,-1.3858,-1.383,-1.383,-1.3826,-1.3824,-1.3826,-1.3863,-1.3864,-1.3865,-1.3866,0,-1.3631,-1.3629,-1.3648,-1.3667,-1.3683,-1.3699,-1.3714,-1.3727,-1.3726,-1.3744,-1.3771,-1.3787,-1.382,-1.3847,-1.3872,-1.3882,-1.3874,-1.3874,-1.3882,-1.3882,-1.3879,-1.388,-1.3787,-1.3872,-1.3871,-1.3871,-1.3871,-1.387,-1.3684,-1.3704,-1.3714,-1.3737,-1.3747,-1.3761,-1.378,-1.3785,-1.3807,-1.3831,-1.3829,-1.3859,-1.3875,-1.3908,-1.392,-1.3945,-1.3934,-1.3946,-1.3949,-1.3951,-1.3953,-1.3876,-1.395,-1.3949,-1.3949,-1.3949,-1.3949,0,-1.3756,-1.3762,-1.3782,-1.3801,-1.3819,-1.3807,-1.3823,-1.3839,-1.3865,-1.3879,-1.3899,-1.3931,-1.3957,-1.3967,-1.3993,-1.4011,-1.4008,-1.4017,-1.4016,-1.4018,-1.3962,-1.3952,-1.4019,-1.4019,-1.4019,-1.4019,-1.4019,-1.4019,-1.3795,-1.3828,-1.3827,-1.3866,-1.3872,-1.3899,-1.3909,-1.3922,-1.3933,-1.3968,-1.3988,-1.3994,-1.4007,-1.4034,-1.4057,-1.406,-1.407,-1.4081,-1.4082,-1.4029,-1.4022,-1.4015,-1.4006,-1.4083,-1.4084,-1.4136,-1.4136,-1.4137]}]]